Reno, NV

2:48 AM PST on December 13, 2019 (GMT -0800)
Reno-Tahoe International

Weather History for KRNO - August, 2019

Change the Weather History Date:

Saturday, August 10, 2019

  Actual Average Record
Temperature  
Mean Temperature 68 °F 74 °F  
Max Temperature 82 °F 92 °F 103 °F (1940)
Min Temperature 53 °F 57 °F 30 °F (1962)
Degree Days  
Heating Degree Days 0 0  
Month to date heating degree days 0 0  
Since 1 June heating degree days 15 61  
Since 1 July heating degree days 0 5  
Cooling Degree Days 2 10  
Month to date cooling degree days 120 103  
Year to date cooling degree days 711 590  
Since 1 June cooling degree days 697 553  
Growing Degree Days 18 (Base 50)    
Moisture  
Dew Point 36 °F    
Average Humidity 34    
Maximum Humidity 50    
Minimum Humidity 17    
Precipitation  
Precipitation 0.00 in 0.01 in 0.27 in (1936)
Month to date precipitation T 0.10  
Year to date precipitation 8.76 4.56  
Snow  
Snow 0.00 in 0.00 in 0.00 in ()
Month to date snowfall 0.0 0.0  
Since 1 June snowfall 0.0 T  
Since 1 July snowfall 0.0 0.0  
Snow Depth 0.00 in    
Sea Level Pressure  
Sea Level Pressure 29.89 in    
Wind  
Wind Speed 6 mph ()    
Max Wind Speed 29 mph    
Max Gust Speed 36 mph    
Visibility 10.0 miles    
Events      
T = Trace of Precipitation, MM = Missing Value Source: Averaged Metar Reports

Daily Weather History Graph

Daily Weather History Graph

Search for Another Location

Airport or City:

Astronomy

Aug. 10, 2019 Rise Set
Actual Time 6:06 AM PDT 8:01 PM PDT
Civil Twilight 5:37 AM PDT 8:30 PM PDT
Nautical Twilight 5:02 AM PDT 9:05 PM PDT
Astronomical Twilight 4:23 AM PDT 9:44 PM PDT
Moon 4:48 PM PDT (8/10) 1:47 AM PDT (8/10)
Length of Visible Light 14h 52m
Length of Day
13h 54m
Waxing Gibbous, 80% of the Moon is Illuminated
Aug 10
Waxing Gibbous
Aug 15
Full
Aug 23
Last Quarter
Aug 30
New
Sep 5
First Quarter

Hourly Weather History & Observations

Time (PDT) Temp. Dew Point Humidity Pressure Visibility Wind Dir Wind Speed Gust Speed Precip Events Conditions
12:55 AM 64.0 °F 32.0 °F 30% 29.86 in 10.0 mi Variable 3.5 mph - N/A   Clear
1:55 AM 61.0 °F 33.1 °F 35% 29.87 in 10.0 mi NNE 5.8 mph - N/A   Clear
2:55 AM 55.9 °F 33.1 °F 42% 29.88 in 10.0 mi South 3.5 mph - N/A   Clear
3:55 AM 57.0 °F 32.0 °F 39% 29.88 in 10.0 mi Calm Calm - N/A   Clear
4:55 AM 54.0 °F 35.1 °F 49% 29.90 in 10.0 mi Calm Calm - N/A   Clear
5:55 AM 53.1 °F 34.0 °F 48% 29.91 in 10.0 mi Calm Calm - N/A   Partly Cloudy
6:55 AM 55.0 °F 35.1 °F 47% 29.92 in 10.0 mi Calm Calm - N/A   Partly Cloudy
7:55 AM 59.0 °F 35.1 °F 41% 29.92 in 10.0 mi Calm Calm - N/A   Partly Cloudy
8:55 AM 63.0 °F 33.1 °F 33% 29.91 in 10.0 mi Calm Calm - N/A   Partly Cloudy
9:55 AM 69.1 °F 33.1 °F 26% 29.88 in 10.0 mi North 3.5 mph - N/A   Partly Cloudy
10:55 AM 71.1 °F 36.0 °F 28% 29.87 in 10.0 mi Variable 3.5 mph - N/A   Mostly Cloudy
11:55 AM 73.9 °F 37.0 °F 26% 29.86 in 10.0 mi Variable 3.5 mph - N/A   Mostly Cloudy
12:55 PM 79.0 °F 35.1 °F 20% 29.83 in 10.0 mi South 17.3 mph 25.3 mph N/A   Mostly Cloudy
1:55 PM 82.0 °F 34.0 °F 18% 29.82 in 10.0 mi South 18.4 mph 29.9 mph N/A   Scattered Clouds
2:55 PM 80.1 °F 34.0 °F 19% 29.83 in 10.0 mi SW 19.6 mph 35.7 mph N/A   Partly Cloudy
3:55 PM 78.1 °F 37.9 °F 24% 29.85 in 10.0 mi West 13.8 mph 33.4 mph N/A   Scattered Clouds
4:55 PM 75.0 °F 36.0 °F 24% 29.86 in 10.0 mi SW 21.9 mph 28.8 mph N/A   Scattered Clouds
5:55 PM 73.0 °F 33.1 °F 23% 29.86 in 10.0 mi SW 18.4 mph 29.9 mph N/A   Scattered Clouds
6:55 PM 72.0 °F 39.0 °F 30% 29.90 in 10.0 mi WSW 13.8 mph 17.3 mph N/A   Scattered Clouds
7:55 PM 68.0 °F 39.0 °F 35% 29.91 in 10.0 mi West 12.7 mph - N/A   Scattered Clouds
8:55 PM 66.0 °F 41.0 °F 40% 29.94 in 10.0 mi WNW 15.0 mph 23.0 mph N/A   Scattered Clouds
9:55 PM 64.9 °F 41.0 °F 42% 29.95 in 10.0 mi NW 13.8 mph - N/A   Partly Cloudy
10:55 PM 64.0 °F 42.1 °F 45% 29.96 in 10.0 mi NW 11.5 mph - N/A   Partly Cloudy
11:55 PM 62.1 °F 42.1 °F 48% 29.97 in 10.0 mi Variable 3.5 mph - N/A   Partly Cloudy